owner,sensor,date,latitude,longitude,vertical_datum,wind_speed,wind_to_direction,wind_speed_of_gust,qcFlag 
SCCF RECON,ioos:station:SCCF:53:1,2014-01-01T00:00:00Z,26.6493,-81.8810,2.11,5.6,39.8,-9999.0,'1111122,1111122,1111122' 
SCCF RECON,ioos:station:SCCF:53:1,2014-01-01T00:15:00Z,26.6493,-81.8810,2.11,5.1,47.3,-9999.0,'1111122,1111122,1111122' 
SCCF RECON,ioos:station:SCCF:53:1,2014-01-01T00:30:00Z,26.6493,-81.8810,2.11,5.5,51.8,-9999.0,'1111122,1111122,1111122' 
SCCF RECON,ioos:station:SCCF:53:1,2014-01-01T00:45:00Z,26.6493,-81.8810,2.11,6.4,55.0,-9999.0,'1111122,1111122,1111122' 
SCCF RECON,ioos:station:SCCF:53:1,2014-01-01T01:00:00Z,26.6493,-81.8810,2.11,5.6,55.2,-9999.0,'1111122,1111122,1111122' 
SCCF RECON,ioos:station:SCCF:53:1,2014-01-01T01:15:00Z,26.6493,-81.8810,2.11,4.6,51.7,-9999.0,'1111122,1111122,1111122' 
SCCF RECON,ioos:station:SCCF:53:1,2014-01-01T01:30:00Z,26.6493,-81.8810,2.11,6.3,51.0,-9999.0,'1111122,1111122,1111122' 
SCCF RECON,ioos:station:SCCF:53:1,2014-01-01T01:45:00Z,26.6493,-81.8810,2.11,5.8,47.6,-9999.0,'1111122,1111122,1111122' 
SCCF RECON,ioos:station:SCCF:53:1,2014-01-01T02:00:00Z,26.6493,-81.8810,2.11,7.4,56.0,-9999.0,'1111122,1111122,1111122' 
SCCF RECON,ioos:station:SCCF:53:1,2014-01-01T02:15:00Z,26.6493,-81.8810,2.11,6.7,46.9,-9999.0,'1111122,1111122,1111122' 
SCCF RECON,ioos:station:SCCF:53:1,2014-01-01T02:30:00Z,26.6493,-81.8810,2.11,6.3,54.4,-9999.0,'1111122,1111122,1111122' 
SCCF RECON,ioos:station:SCCF:53:1,2014-01-01T02:45:00Z,26.6493,-81.8810,2.11,5.2,41.7,-9999.0,'1111122,1111122,1111122' 
SCCF RECON,ioos:station:SCCF:53:1,2014-01-01T03:00:00Z,26.6493,-81.8810,2.11,6.7,54.8,-9999.0,'1111122,1111122,1111122' 
SCCF RECON,ioos:station:SCCF:53:1,2014-01-01T03:15:00Z,26.6493,-81.8810,2.11,7.0,53.2,-9999.0,'1111122,1111122,1111122' 
SCCF RECON,ioos:station:SCCF:53:1,2014-01-01T03:30:00Z,26.6493,-81.8810,2.11,6.6,51.9,-9999.0,'1111122,1111122,1111122' 
SCCF RECON,ioos:station:SCCF:53:1,2014-01-01T03:45:00Z,26.6493,-81.8810,2.11,9.1,49.7,-9999.0,'1111122,1111122,1111122' 
SCCF RECON,ioos:station:SCCF:53:1,2014-01-01T04:00:00Z,26.6493,-81.8810,2.11,5.7,55.0,-9999.0,'1111122,1111122,1111122' 
SCCF RECON,ioos:station:SCCF:53:1,2014-01-01T04:15:00Z,26.6493,-81.8810,2.11,8.0,50.8,-9999.0,'1111122,1111122,1111122' 
SCCF RECON,ioos:station:SCCF:53:1,2014-01-01T04:30:00Z,26.6493,-81.8810,2.11,5.6,44.1,-9999.0,'1111122,1111122,1111122' 
SCCF RECON,ioos:station:SCCF:53:1,2014-01-01T04:45:00Z,26.6493,-81.8810,2.11,4.8,59.7,-9999.0,'1111122,1111122,1111122' 
SCCF RECON,ioos:station:SCCF:53:1,2014-01-01T05:00:00Z,26.6493,-81.8810,2.11,4.6,59.8,-9999.0,'1111122,1111122,1111122' 
SCCF RECON,ioos:station:SCCF:53:1,2014-01-01T05:15:00Z,26.6493,-81.8810,2.11,5.7,56.5,-9999.0,'1111122,1111122,1111122' 
SCCF RECON,ioos:station:SCCF:53:1,2014-01-01T05:30:00Z,26.6493,-81.8810,2.11,5.4,63.7,-9999.0,'1111122,1111122,1111122' 
SCCF RECON,ioos:station:SCCF:53:1,2014-01-01T05:45:00Z,26.6493,-81.8810,2.11,4.7,44.4,-9999.0,'1111122,1111122,1111122' 
SCCF RECON,ioos:station:SCCF:53:1,2014-01-01T06:00:00Z,26.6493,-81.8810,2.11,5.1,42.4,-9999.0,'1111122,1111122,1111122' 
SCCF RECON,ioos:station:SCCF:53:1,2014-01-01T06:15:00Z,26.6493,-81.8810,2.11,5.4,34.9,-9999.0,'1111122,1111122,1111122' 
SCCF RECON,ioos:station:SCCF:53:1,2014-01-01T06:30:00Z,26.6493,-81.8810,2.11,6.6,45.1,-9999.0,'1111122,1111122,1111122' 
SCCF RECON,ioos:station:SCCF:53:1,2014-01-01T06:45:00Z,26.6493,-81.8810,2.11,5.3,43.0,-9999.0,'1111122,1111122,1111122' 
SCCF RECON,ioos:station:SCCF:53:1,2014-01-01T07:00:00Z,26.6493,-81.8810,2.11,5.7,40.5,-9999.0,'1111122,1111122,1111122' 
SCCF RECON,ioos:station:SCCF:53:1,2014-01-01T07:15:00Z,26.6493,-81.8810,2.11,4.3,49.7,-9999.0,'1111122,1111122,1111122' 
SCCF RECON,ioos:station:SCCF:53:1,2014-01-01T07:30:00Z,26.6493,-81.8810,2.11,5.5,46.5,-9999.0,'1111122,1111122,1111122' 
SCCF RECON,ioos:station:SCCF:53:1,2014-01-01T07:45:00Z,26.6493,-81.8810,2.11,4.8,36.5,-9999.0,'1111122,1111122,1111122' 
SCCF RECON,ioos:station:SCCF:53:1,2014-01-01T08:00:00Z,26.6493,-81.8810,2.11,4.5,50.5,-9999.0,'1111122,1111122,1111122' 
SCCF RECON,ioos:station:SCCF:53:1,2014-01-01T08:15:00Z,26.6493,-81.8810,2.11,5.0,52.9,-9999.0,'1111122,1111122,1111122' 
SCCF RECON,ioos:station:SCCF:53:1,2014-01-01T08:30:00Z,26.6493,-81.8810,2.11,4.7,38.7,-9999.0,'1111122,1111122,1111122' 
SCCF RECON,ioos:station:SCCF:53:1,2014-01-01T08:45:00Z,26.6493,-81.8810,2.11,4.7,8.5,-9999.0,'1111122,1111122,1111122' 
SCCF RECON,ioos:station:SCCF:53:1,2014-01-01T09:00:00Z,26.6493,-81.8810,2.11,4.7,27.9,-9999.0,'1111122,1111122,1111122' 
SCCF RECON,ioos:station:SCCF:53:1,2014-01-01T09:15:00Z,26.6493,-81.8810,2.11,4.8,38.4,-9999.0,'1111122,1111122,1111122' 
SCCF RECON,ioos:station:SCCF:53:1,2014-01-01T09:30:00Z,26.6493,-81.8810,2.11,5.2,36.7,-9999.0,'1111122,1111122,1111122' 
SCCF RECON,ioos:station:SCCF:53:1,2014-01-01T09:45:00Z,26.6493,-81.8810,2.11,5.3,37.9,-9999.0,'1111122,1111122,1111122' 
SCCF RECON,ioos:station:SCCF:53:1,2014-01-01T10:00:00Z,26.6493,-81.8810,2.11,4.1,41.7,-9999.0,'1111122,1111122,1111122' 
SCCF RECON,ioos:station:SCCF:53:1,2014-01-01T10:15:00Z,26.6493,-81.8810,2.11,5.5,49.0,-9999.0,'1111122,1111122,1111122' 
SCCF RECON,ioos:station:SCCF:53:1,2014-01-01T10:30:00Z,26.6493,-81.8810,2.11,5.6,50.8,-9999.0,'1111122,1111122,1111122' 
SCCF RECON,ioos:station:SCCF:53:1,2014-01-01T10:45:00Z,26.6493,-81.8810,2.11,5.1,56.3,-9999.0,'1111122,1111122,1111122' 
SCCF RECON,ioos:station:SCCF:53:1,2014-01-01T11:00:00Z,26.6493,-81.8810,2.11,4.8,45.9,-9999.0,'1111122,1111122,1111122' 
SCCF RECON,ioos:station:SCCF:53:1,2014-01-01T11:15:00Z,26.6493,-81.8810,2.11,4.8,55.5,-9999.0,'1111122,1111122,1111122' 
SCCF RECON,ioos:station:SCCF:53:1,2014-01-01T11:30:00Z,26.6493,-81.8810,2.11,3.8,52.8,-9999.0,'1111122,1111122,1111122' 
SCCF RECON,ioos:station:SCCF:53:1,2014-01-01T11:45:00Z,26.6493,-81.8810,2.11,4.3,45.5,-9999.0,'1111122,1111122,1111122' 
SCCF RECON,ioos:station:SCCF:53:1,2014-01-01T12:00:00Z,26.6493,-81.8810,2.11,4.9,44.5,-9999.0,'1111122,1111122,1111122' 
SCCF RECON,ioos:station:SCCF:53:1,2014-01-01T12:15:00Z,26.6493,-81.8810,2.11,5.5,31.9,-9999.0,'1111122,1111122,1111122' 
SCCF RECON,ioos:station:SCCF:53:1,2014-01-01T12:30:00Z,26.6493,-81.8810,2.11,4.8,31.6,-9999.0,'1111122,1111122,1111122' 
SCCF RECON,ioos:station:SCCF:53:1,2014-01-01T12:45:00Z,26.6493,-81.8810,2.11,4.8,35.4,-9999.0,'1111122,1111122,1111122' 
SCCF RECON,ioos:station:SCCF:53:1,2014-01-01T13:00:00Z,26.6493,-81.8810,2.11,5.7,33.9,-9999.0,'1111122,1111122,1111122' 
SCCF RECON,ioos:station:SCCF:53:1,2014-01-01T13:15:00Z,26.6493,-81.8810,2.11,4.8,45.7,-9999.0,'1111122,1111122,1111122' 
SCCF RECON,ioos:station:SCCF:53:1,2014-01-01T13:30:00Z,26.6493,-81.8810,2.11,4.7,46.6,-9999.0,'1111122,1111122,1111122' 
SCCF RECON,ioos:station:SCCF:53:1,2014-01-01T13:45:00Z,26.6493,-81.8810,2.11,5.5,49.0,-9999.0,'1111122,1111122,1111122' 
SCCF RECON,ioos:station:SCCF:53:1,2014-01-01T14:00:00Z,26.6493,-81.8810,2.11,5.3,50.6,-9999.0,'1111122,1111122,1111122' 
SCCF RECON,ioos:station:SCCF:53:1,2014-01-01T14:15:00Z,26.6493,-81.8810,2.11,4.8,47.0,-9999.0,'1111122,1111122,1111122' 
SCCF RECON,ioos:station:SCCF:53:1,2014-01-01T14:30:00Z,26.6493,-81.8810,2.11,3.8,63.6,-9999.0,'1111122,1111122,1111122' 
SCCF RECON,ioos:station:SCCF:53:1,2014-01-01T14:45:00Z,26.6493,-81.8810,2.11,4.8,83.5,-9999.0,'1111122,1111122,1111122' 
SCCF RECON,ioos:station:SCCF:53:1,2014-01-01T15:00:00Z,26.6493,-81.8810,2.11,3.9,73.3,-9999.0,'1111122,1111122,1111122' 
SCCF RECON,ioos:station:SCCF:53:1,2014-01-01T15:15:00Z,26.6493,-81.8810,2.11,3.1,42.1,-9999.0,'1111122,1111122,1111122' 
SCCF RECON,ioos:station:SCCF:53:1,2014-01-01T15:30:00Z,26.6493,-81.8810,2.11,4.2,50.2,-9999.0,'1111122,1111122,1111122' 
SCCF RECON,ioos:station:SCCF:53:1,2014-01-01T15:45:00Z,26.6493,-81.8810,2.11,3.4,64.3,-9999.0,'1111122,1111122,1111122' 
SCCF RECON,ioos:station:SCCF:53:1,2014-01-01T16:00:00Z,26.6493,-81.8810,2.11,2.7,69.3,-9999.0,'1111122,1111122,1111122' 
SCCF RECON,ioos:station:SCCF:53:1,2014-01-01T16:15:00Z,26.6493,-81.8810,2.11,3.9,81.2,-9999.0,'1111122,1111122,1111122' 
SCCF RECON,ioos:station:SCCF:53:1,2014-01-01T16:30:00Z,26.6493,-81.8810,2.11,2.8,63.4,-9999.0,'1111122,1111122,1111122' 
SCCF RECON,ioos:station:SCCF:53:1,2014-01-01T16:45:00Z,26.6493,-81.8810,2.11,3.4,89.2,-9999.0,'1111122,1111122,1111122' 
SCCF RECON,ioos:station:SCCF:53:1,2014-01-01T17:00:00Z,26.6493,-81.8810,2.11,4.0,73.6,-9999.0,'1111122,1111122,1111122' 
SCCF RECON,ioos:station:SCCF:53:1,2014-01-01T17:15:00Z,26.6493,-81.8810,2.11,4.4,55.1,-9999.0,'1111122,1111122,1111122' 
SCCF RECON,ioos:station:SCCF:53:1,2014-01-01T17:30:00Z,26.6493,-81.8810,2.11,2.6,80.1,-9999.0,'1111122,1111122,1111122' 
SCCF RECON,ioos:station:SCCF:53:1,2014-01-01T17:45:00Z,26.6493,-81.8810,2.11,4.3,56.9,-9999.0,'1111122,1111122,1111122' 
SCCF RECON,ioos:station:SCCF:53:1,2014-01-01T18:00:00Z,26.6493,-81.8810,2.11,3.3,12.5,-9999.0,'1111122,1111122,1111122' 
SCCF RECON,ioos:station:SCCF:53:1,2014-01-01T18:15:00Z,26.6493,-81.8810,2.11,2.4,27.3,-9999.0,'1111122,1111122,1111122' 
SCCF RECON,ioos:station:SCCF:53:1,2014-01-01T18:30:00Z,26.6493,-81.8810,2.11,3.5,23.9,-9999.0,'1111122,1111122,1111122' 
SCCF RECON,ioos:station:SCCF:53:1,2014-01-01T18:45:00Z,26.6493,-81.8810,2.11,3.1,36.4,-9999.0,'1111122,1111122,1111122' 
SCCF RECON,ioos:station:SCCF:53:1,2014-01-01T19:00:00Z,26.6493,-81.8810,2.11,1.4,66.9,-9999.0,'1111122,1111122,1111122' 
SCCF RECON,ioos:station:SCCF:53:1,2014-01-01T19:15:00Z,26.6493,-81.8810,2.11,2.8,23.9,-9999.0,'1111122,1111122,1111122' 
SCCF RECON,ioos:station:SCCF:53:1,2014-01-01T19:30:00Z,26.6493,-81.8810,2.11,1.5,73.8,-9999.0,'1111122,1111122,1111122' 
SCCF RECON,ioos:station:SCCF:53:1,2014-01-01T19:45:00Z,26.6493,-81.8810,2.11,1.7,24.5,-9999.0,'1111122,1111122,1111122' 
SCCF RECON,ioos:station:SCCF:53:1,2014-01-01T20:00:00Z,26.6493,-81.8810,2.11,1.6,10.8,-9999.0,'1111122,1111122,1111122' 
SCCF RECON,ioos:station:SCCF:53:1,2014-01-01T20:15:00Z,26.6493,-81.8810,2.11,1.0,340.6,-9999.0,'1111122,1111122,1111122' 
SCCF RECON,ioos:station:SCCF:53:1,2014-01-01T20:30:00Z,26.6493,-81.8810,2.11,1.2,228.4,-9999.0,'1111122,1111122,1111122' 
SCCF RECON,ioos:station:SCCF:53:1,2014-01-01T20:45:00Z,26.6493,-81.8810,2.11,-9999.0,131.1,-9999.0,'1111122,1111122,1111122' 
SCCF RECON,ioos:station:SCCF:53:1,2014-01-01T21:00:00Z,26.6493,-81.8810,2.11,0.7,352.9,-9999.0,'1111122,1111122,1111122' 
SCCF RECON,ioos:station:SCCF:53:1,2014-01-01T21:15:00Z,26.6493,-81.8810,2.11,0.8,7.0,-9999.0,'1111122,1111122,1111122' 
SCCF RECON,ioos:station:SCCF:53:1,2014-01-01T21:30:00Z,26.6493,-81.8810,2.11,-9999.0,350.6,-9999.0,'1111122,1111122,1111122' 
SCCF RECON,ioos:station:SCCF:53:1,2014-01-01T21:45:00Z,26.6493,-81.8810,2.11,1.5,160.2,-9999.0,'1111122,1111122,1111122' 
SCCF RECON,ioos:station:SCCF:53:1,2014-01-01T22:00:00Z,26.6493,-81.8810,2.11,1.5,26.8,-9999.0,'1111122,1111122,1111122' 
SCCF RECON,ioos:station:SCCF:53:1,2014-01-01T22:15:00Z,26.6493,-81.8810,2.11,3.5,32.6,-9999.0,'1111122,1111122,1111122' 
SCCF RECON,ioos:station:SCCF:53:1,2014-01-01T22:30:00Z,26.6493,-81.8810,2.11,2.3,31.3,-9999.0,'1111122,1111122,1111122' 
SCCF RECON,ioos:station:SCCF:53:1,2014-01-01T22:45:00Z,26.6493,-81.8810,2.11,2.1,26.8,-9999.0,'1111122,1111122,1111122' 
SCCF RECON,ioos:station:SCCF:53:1,2014-01-01T23:00:00Z,26.6493,-81.8810,2.11,3.0,21.2,-9999.0,'1111122,1111122,1111122' 
SCCF RECON,ioos:station:SCCF:53:1,2014-01-01T23:15:00Z,26.6493,-81.8810,2.11,2.2,60.3,-9999.0,'1111122,1111122,1111122' 
SCCF RECON,ioos:station:SCCF:53:1,2014-01-01T23:30:00Z,26.6493,-81.8810,2.11,4.2,30.4,-9999.0,'1111122,1111122,1111122' 
SCCF RECON,ioos:station:SCCF:53:1,2014-01-01T23:45:00Z,26.6493,-81.8810,2.11,3.5,15.1,-9999.0,'1111122,1111122,1111122' 
SCCF RECON,ioos:station:SCCF:53:1,2014-01-02T00:00:00Z,26.6493,-81.8810,2.11,3.9,33.8,-9999.0,'1111122,1111122,1111122' 
SCCF RECON,ioos:station:SCCF:53:1,2014-01-02T00:15:00Z,26.6493,-81.8810,2.11,3.5,30.6,-9999.0,'1111122,1111122,1111122' 
SCCF RECON,ioos:station:SCCF:53:1,2014-01-02T00:30:00Z,26.6493,-81.8810,2.11,3.7,38.6,-9999.0,'1111122,1111122,1111122' 
SCCF RECON,ioos:station:SCCF:53:1,2014-01-02T00:45:00Z,26.6493,-81.8810,2.11,3.5,45.4,-9999.0,'1111122,1111122,1111122' 
SCCF RECON,ioos:station:SCCF:53:1,2014-01-02T01:00:00Z,26.6493,-81.8810,2.11,3.5,32.7,-9999.0,'1111122,1111122,1111122' 
SCCF RECON,ioos:station:SCCF:53:1,2014-01-02T01:15:00Z,26.6493,-81.8810,2.11,3.4,51.7,-9999.0,'1111122,1111122,1111122' 
SCCF RECON,ioos:station:SCCF:53:1,2014-01-02T01:30:00Z,26.6493,-81.8810,2.11,2.6,37.3,-9999.0,'1111122,1111122,1111122' 
SCCF RECON,ioos:station:SCCF:53:1,2014-01-02T01:45:00Z,26.6493,-81.8810,2.11,2.2,44.5,-9999.0,'1111122,1111122,1111122' 
SCCF RECON,ioos:station:SCCF:53:1,2014-01-02T02:00:00Z,26.6493,-81.8810,2.11,2.8,50.5,-9999.0,'1111122,1111122,1111122' 
SCCF RECON,ioos:station:SCCF:53:1,2014-01-02T02:15:00Z,26.6493,-81.8810,2.11,2.3,54.2,-9999.0,'1111122,1111122,1111122' 
SCCF RECON,ioos:station:SCCF:53:1,2014-01-02T02:30:00Z,26.6493,-81.8810,2.11,3.0,38.0,-9999.0,'1111122,1111122,1111122' 
SCCF RECON,ioos:station:SCCF:53:1,2014-01-02T02:45:00Z,26.6493,-81.8810,2.11,3.3,36.8,-9999.0,'1111122,1111122,1111122' 
SCCF RECON,ioos:station:SCCF:53:1,2014-01-02T03:00:00Z,26.6493,-81.8810,2.11,2.8,35.4,-9999.0,'1111122,1111122,1111122' 
SCCF RECON,ioos:station:SCCF:53:1,2014-01-02T03:15:00Z,26.6493,-81.8810,2.11,2.3,37.1,-9999.0,'1111122,1111122,1111122' 
SCCF RECON,ioos:station:SCCF:53:1,2014-01-02T03:30:00Z,26.6493,-81.8810,2.11,2.3,52.3,-9999.0,'1111122,1111122,1111122' 
SCCF RECON,ioos:station:SCCF:53:1,2014-01-02T03:45:00Z,26.6493,-81.8810,2.11,2.8,57.8,-9999.0,'1111122,1111122,1111122' 
SCCF RECON,ioos:station:SCCF:53:1,2014-01-02T04:00:00Z,26.6493,-81.8810,2.11,3.4,50.5,-9999.0,'1111122,1111122,1111122' 
SCCF RECON,ioos:station:SCCF:53:1,2014-01-02T04:15:00Z,26.6493,-81.8810,2.11,2.7,66.9,-9999.0,'1111122,1111122,1111122' 
SCCF RECON,ioos:station:SCCF:53:1,2014-01-02T04:30:00Z,26.6493,-81.8810,2.11,3.2,64.8,-9999.0,'1111122,1111122,1111122' 
SCCF RECON,ioos:station:SCCF:53:1,2014-01-02T04:45:00Z,26.6493,-81.8810,2.11,2.5,82.5,-9999.0,'1111122,1111122,1111122' 
SCCF RECON,ioos:station:SCCF:53:1,2014-01-02T05:00:00Z,26.6493,-81.8810,2.11,2.0,63.4,-9999.0,'1111122,1111122,1111122' 
SCCF RECON,ioos:station:SCCF:53:1,2014-01-02T05:15:00Z,26.6493,-81.8810,2.11,2.2,60.1,-9999.0,'1111122,1111122,1111122' 
SCCF RECON,ioos:station:SCCF:53:1,2014-01-02T05:30:00Z,26.6493,-81.8810,2.11,2.2,61.1,-9999.0,'1111122,1111122,1111122' 
SCCF RECON,ioos:station:SCCF:53:1,2014-01-02T05:45:00Z,26.6493,-81.8810,2.11,2.3,46.2,-9999.0,'1111122,1111122,1111122' 
SCCF RECON,ioos:station:SCCF:53:1,2014-01-02T06:00:00Z,26.6493,-81.8810,2.11,2.3,54.0,-9999.0,'1111122,1111122,1111122' 
SCCF RECON,ioos:station:SCCF:53:1,2014-01-02T06:15:00Z,26.6493,-81.8810,2.11,1.3,49.0,-9999.0,'1111122,1111122,1111122' 
SCCF RECON,ioos:station:SCCF:53:1,2014-01-02T06:30:00Z,26.6493,-81.8810,2.11,1.2,62.9,-9999.0,'1111122,1111122,1111122' 
SCCF RECON,ioos:station:SCCF:53:1,2014-01-02T06:45:00Z,26.6493,-81.8810,2.11,1.6,69.9,-9999.0,'1111122,1111122,1111122' 
SCCF RECON,ioos:station:SCCF:53:1,2014-01-02T07:00:00Z,26.6493,-81.8810,2.11,1.9,71.3,-9999.0,'1111122,1111122,1111122' 
SCCF RECON,ioos:station:SCCF:53:1,2014-01-02T07:15:00Z,26.6493,-81.8810,2.11,1.9,57.5,-9999.0,'1111122,1111122,1111122' 
SCCF RECON,ioos:station:SCCF:53:1,2014-01-02T07:30:00Z,26.6493,-81.8810,2.11,1.1,80.6,-9999.0,'1111122,1111122,1111122' 
SCCF RECON,ioos:station:SCCF:53:1,2014-01-02T07:45:00Z,26.6493,-81.8810,2.11,1.5,84.8,-9999.0,'1111122,1111122,1111122' 
SCCF RECON,ioos:station:SCCF:53:1,2014-01-02T08:00:00Z,26.6493,-81.8810,2.11,1.4,79.8,-9999.0,'1111122,1111122,1111122' 
SCCF RECON,ioos:station:SCCF:53:1,2014-01-02T08:15:00Z,26.6493,-81.8810,2.11,1.4,79.4,-9999.0,'1111122,1111122,1111122' 
SCCF RECON,ioos:station:SCCF:53:1,2014-01-02T08:30:00Z,26.6493,-81.8810,2.11,1.0,73.6,-9999.0,'1111122,1111122,1111122' 
SCCF RECON,ioos:station:SCCF:53:1,2014-01-02T08:45:00Z,26.6493,-81.8810,2.11,0.5,74.0,-9999.0,'1111122,1111122,1111122' 
SCCF RECON,ioos:station:SCCF:53:1,2014-01-02T09:00:00Z,26.6493,-81.8810,2.11,1.1,71.6,-9999.0,'1111122,1111122,1111122' 
SCCF RECON,ioos:station:SCCF:53:1,2014-01-02T09:15:00Z,26.6493,-81.8810,2.11,1.1,64.4,-9999.0,'1111122,1111122,1111122' 
SCCF RECON,ioos:station:SCCF:53:1,2014-01-02T09:30:00Z,26.6493,-81.8810,2.11,1.4,67.4,-9999.0,'1111122,1111122,1111122' 
SCCF RECON,ioos:station:SCCF:53:1,2014-01-02T09:45:00Z,26.6493,-81.8810,2.11,1.2,85.3,-9999.0,'1111122,1111122,1111122' 
SCCF RECON,ioos:station:SCCF:53:1,2014-01-02T10:00:00Z,26.6493,-81.8810,2.11,0.9,92.9,-9999.0,'1111122,1111122,1111122' 
SCCF RECON,ioos:station:SCCF:53:1,2014-01-02T10:15:00Z,26.6493,-81.8810,2.11,1.4,112.1,-9999.0,'1111122,1111122,1111122' 
SCCF RECON,ioos:station:SCCF:53:1,2014-01-02T10:30:00Z,26.6493,-81.8810,2.11,2.1,127.5,-9999.0,'1111122,1111122,1111122' 
SCCF RECON,ioos:station:SCCF:53:1,2014-01-02T10:45:00Z,26.6493,-81.8810,2.11,2.3,140.0,-9999.0,'1111122,1111122,1111122' 
SCCF RECON,ioos:station:SCCF:53:1,2014-01-02T11:00:00Z,26.6493,-81.8810,2.11,2.5,137.4,-9999.0,'1111122,1111122,1111122' 
SCCF RECON,ioos:station:SCCF:53:1,2014-01-02T11:15:00Z,26.6493,-81.8810,2.11,2.1,144.7,-9999.0,'1111122,1111122,1111122' 
SCCF RECON,ioos:station:SCCF:53:1,2014-01-02T11:30:00Z,26.6493,-81.8810,2.11,2.6,134.4,-9999.0,'1111122,1111122,1111122' 
SCCF RECON,ioos:station:SCCF:53:1,2014-01-02T11:45:00Z,26.6493,-81.8810,2.11,2.9,141.2,-9999.0,'1111122,1111122,1111122' 
SCCF RECON,ioos:station:SCCF:53:1,2014-01-02T12:00:00Z,26.6493,-81.8810,2.11,2.5,136.3,-9999.0,'1111122,1111122,1111122' 
SCCF RECON,ioos:station:SCCF:53:1,2014-01-02T12:15:00Z,26.6493,-81.8810,2.11,3.2,144.8,-9999.0,'1111122,1111122,1111122' 
SCCF RECON,ioos:station:SCCF:53:1,2014-01-02T12:30:00Z,26.6493,-81.8810,2.11,2.3,138.4,-9999.0,'1111122,1111122,1111122' 
SCCF RECON,ioos:station:SCCF:53:1,2014-01-02T12:45:00Z,26.6493,-81.8810,2.11,4.2,164.5,-9999.0,'1111122,1111122,1111122' 
SCCF RECON,ioos:station:SCCF:53:1,2014-01-02T13:00:00Z,26.6493,-81.8810,2.11,3.7,191.6,-9999.0,'1111122,1111122,1111122' 
SCCF RECON,ioos:station:SCCF:53:1,2014-01-02T13:15:00Z,26.6493,-81.8810,2.11,2.3,157.6,-9999.0,'1111122,1111122,1111122' 
SCCF RECON,ioos:station:SCCF:53:1,2014-01-02T13:30:00Z,26.6493,-81.8810,2.11,2.9,168.9,-9999.0,'1111122,1111122,1111122' 
SCCF RECON,ioos:station:SCCF:53:1,2014-01-02T13:45:00Z,26.6493,-81.8810,2.11,4.1,173.6,-9999.0,'1111122,1111122,1111122' 
SCCF RECON,ioos:station:SCCF:53:1,2014-01-02T14:00:00Z,26.6493,-81.8810,2.11,4.3,160.4,-9999.0,'1111122,1111122,1111122' 
SCCF RECON,ioos:station:SCCF:53:1,2014-01-02T14:15:00Z,26.6493,-81.8810,2.11,3.0,180.6,-9999.0,'1111122,1111122,1111122' 
SCCF RECON,ioos:station:SCCF:53:1,2014-01-02T14:30:00Z,26.6493,-81.8810,2.11,4.8,153.3,-9999.0,'1111122,1111122,1111122' 
SCCF RECON,ioos:station:SCCF:53:1,2014-01-02T14:45:00Z,26.6493,-81.8810,2.11,3.4,163.3,-9999.0,'1111122,1111122,1111122' 
SCCF RECON,ioos:station:SCCF:53:1,2014-01-02T15:00:00Z,26.6493,-81.8810,2.11,7.0,193.9,-9999.0,'1111122,1111122,1111122' 
SCCF RECON,ioos:station:SCCF:53:1,2014-01-02T15:15:00Z,26.6493,-81.8810,2.11,8.1,166.4,-9999.0,'1111122,1111122,1111122' 
SCCF RECON,ioos:station:SCCF:53:1,2014-01-02T15:30:00Z,26.6493,-81.8810,2.11,10.3,190.6,-9999.0,'1111122,1111122,1111122' 
SCCF RECON,ioos:station:SCCF:53:1,2014-01-02T15:45:00Z,26.6493,-81.8810,2.11,7.7,205.9,-9999.0,'1111122,1111122,1111122' 
SCCF RECON,ioos:station:SCCF:53:1,2014-01-02T16:00:00Z,26.6493,-81.8810,2.11,8.6,190.1,-9999.0,'1111122,1111122,1111122' 
SCCF RECON,ioos:station:SCCF:53:1,2014-01-02T16:15:00Z,26.6493,-81.8810,2.11,6.4,196.7,-9999.0,'1111122,1111122,1111122' 
SCCF RECON,ioos:station:SCCF:53:1,2014-01-02T16:30:00Z,26.6493,-81.8810,2.11,8.9,195.6,-9999.0,'1111122,1111122,1111122' 
SCCF RECON,ioos:station:SCCF:53:1,2014-01-02T16:45:00Z,26.6493,-81.8810,2.11,9.7,203.9,-9999.0,'1111122,1111122,1111122' 
SCCF RECON,ioos:station:SCCF:53:1,2014-01-02T17:00:00Z,26.6493,-81.8810,2.11,8.4,208.8,-9999.0,'1111122,1111122,1111122' 
SCCF RECON,ioos:station:SCCF:53:1,2014-01-02T17:15:00Z,26.6493,-81.8810,2.11,7.3,214.8,-9999.0,'1111122,1111122,1111122' 
SCCF RECON,ioos:station:SCCF:53:1,2014-01-02T17:30:00Z,26.6493,-81.8810,2.11,8.0,209.2,-9999.0,'1111122,1111122,1111122' 
SCCF RECON,ioos:station:SCCF:53:1,2014-01-02T17:45:00Z,26.6493,-81.8810,2.11,7.1,205.0,-9999.0,'1111122,1111122,1111122' 
SCCF RECON,ioos:station:SCCF:53:1,2014-01-02T18:00:00Z,26.6493,-81.8810,2.11,8.7,219.8,-9999.0,'1111122,1111122,1111122' 
SCCF RECON,ioos:station:SCCF:53:1,2014-01-02T18:15:00Z,26.6493,-81.8810,2.11,8.9,216.7,-9999.0,'1111122,1111122,1111122' 
SCCF RECON,ioos:station:SCCF:53:1,2014-01-02T18:30:00Z,26.6493,-81.8810,2.11,8.3,209.1,-9999.0,'1111122,1111122,1111122' 
SCCF RECON,ioos:station:SCCF:53:1,2014-01-02T18:45:00Z,26.6493,-81.8810,2.11,9.2,215.1,-9999.0,'1111122,1111122,1111122' 
SCCF RECON,ioos:station:SCCF:53:1,2014-01-02T19:00:00Z,26.6493,-81.8810,2.11,9.1,210.4,-9999.0,'1111122,1111122,1111122' 
SCCF RECON,ioos:station:SCCF:53:1,2014-01-02T19:15:00Z,26.6493,-81.8810,2.11,7.9,205.7,-9999.0,'1111122,1111122,1111122' 
SCCF RECON,ioos:station:SCCF:53:1,2014-01-02T19:30:00Z,26.6493,-81.8810,2.11,8.3,211.1,-9999.0,'1111122,1111122,1111122' 
SCCF RECON,ioos:station:SCCF:53:1,2014-01-02T19:45:00Z,26.6493,-81.8810,2.11,7.5,211.9,-9999.0,'1111122,1111122,1111122' 
SCCF RECON,ioos:station:SCCF:53:1,2014-01-02T20:00:00Z,26.6493,-81.8810,2.11,7.4,210.2,-9999.0,'1111122,1111122,1111122' 
SCCF RECON,ioos:station:SCCF:53:1,2014-01-02T20:15:00Z,26.6493,-81.8810,2.11,6.8,210.4,-9999.0,'1111122,1111122,1111122' 
SCCF RECON,ioos:station:SCCF:53:1,2014-01-02T20:30:00Z,26.6493,-81.8810,2.11,7.3,212.5,-9999.0,'1111122,1111122,1111122' 
SCCF RECON,ioos:station:SCCF:53:1,2014-01-02T20:45:00Z,26.6493,-81.8810,2.11,8.2,213.3,-9999.0,'1111122,1111122,1111122' 
SCCF RECON,ioos:station:SCCF:53:1,2014-01-02T21:00:00Z,26.6493,-81.8810,2.11,7.7,214.0,-9999.0,'1111122,1111122,1111122' 
SCCF RECON,ioos:station:SCCF:53:1,2014-01-02T21:15:00Z,26.6493,-81.8810,2.11,7.6,225.9,-9999.0,'1111122,1111122,1111122' 
SCCF RECON,ioos:station:SCCF:53:1,2014-01-02T21:30:00Z,26.6493,-81.8810,2.11,7.6,208.6,-9999.0,'1111122,1111122,1111122' 
SCCF RECON,ioos:station:SCCF:53:1,2014-01-02T21:45:00Z,26.6493,-81.8810,2.11,7.6,211.8,-9999.0,'1111122,1111122,1111122' 
SCCF RECON,ioos:station:SCCF:53:1,2014-01-02T22:00:00Z,26.6493,-81.8810,2.11,6.2,213.7,-9999.0,'1111122,1111122,1111122' 
SCCF RECON,ioos:station:SCCF:53:1,2014-01-02T22:15:00Z,26.6493,-81.8810,2.11,6.5,219.6,-9999.0,'1111122,1111122,1111122' 
SCCF RECON,ioos:station:SCCF:53:1,2014-01-02T22:30:00Z,26.6493,-81.8810,2.11,6.3,208.3,-9999.0,'1111122,1111122,1111122' 
SCCF RECON,ioos:station:SCCF:53:1,2014-01-02T22:45:00Z,26.6493,-81.8810,2.11,7.7,211.5,-9999.0,'1111122,1111122,1111122' 
SCCF RECON,ioos:station:SCCF:53:1,2014-01-02T23:00:00Z,26.6493,-81.8810,2.11,8.8,209.1,-9999.0,'1111122,1111122,1111122' 
SCCF RECON,ioos:station:SCCF:53:1,2014-01-02T23:15:00Z,26.6493,-81.8810,2.11,6.6,201.1,-9999.0,'1111122,1111122,1111122' 
SCCF RECON,ioos:station:SCCF:53:1,2014-01-02T23:30:00Z,26.6493,-81.8810,2.11,7.5,225.3,-9999.0,'1111122,1111122,1111122' 
SCCF RECON,ioos:station:SCCF:53:1,2014-01-02T23:45:00Z,26.6493,-81.8810,2.11,6.3,240.2,-9999.0,'1111122,1111122,1111122' 
SCCF RECON,ioos:station:SCCF:53:1,2014-01-03T00:00:00Z,26.6493,-81.8810,2.11,6.0,234.9,-9999.0,'1111122,1111122,1111122' 
SCCF RECON,ioos:station:SCCF:53:1,2014-01-03T00:15:00Z,26.6493,-81.8810,2.11,7.2,210.8,-9999.0,'1111122,1111122,1111122' 
SCCF RECON,ioos:station:SCCF:53:1,2014-01-03T00:30:00Z,26.6493,-81.8810,2.11,4.8,227.9,-9999.0,'1111122,1111122,1111122' 
SCCF RECON,ioos:station:SCCF:53:1,2014-01-03T00:45:00Z,26.6493,-81.8810,2.11,3.9,223.8,-9999.0,'1111122,1111122,1111122' 